Tracking 20041 objects as of 22-Nov-2019
Live streaming from Space Station
objects crossing your sky now

BEIDOU G7

Track BEIDOU G7 now!
BEIDOU G7 is classified as:


NORAD ID: 41586
Int'l Code: 2016-037A
Perigee: 35,765.8 km
Apogee: 35,822.1 km
Inclination: 1.1 °
Period: 1,436.1 minutes
Semi major axis: 42164 km
RCS: Unknown
Launch date: June 12, 2016
Source: People's Republic of China (PRC)
Launch site: Xichang Space Center, China (XSC)
aabbcc
Your satellite tracking list
Your tracking list is empty




NASA's NSSDC Master Catalog

Two Line Element Set (TLE):
1 41586U 16037A   19326.16979793 -.00000356  00000-0  00000+0 0  9997
2 41586   1.1154  54.1511 0006673 355.9988 182.4561  1.00270958 12725
Source of the keplerian elements: AFSPC